Regional Weather Roundup
Issued by NWS

Home | Current Version | Previous Version | Text Only | Print | Product List | Glossary On
Versions: 1 2 3 4 5 6 7 8 9 10 11 12 13 14 15 16 17 18 19 20 21 22 23 24 25 26 27 28 29 30 31 32 33 34 35 36 37 38 39 40 41 42 43 44 45 46 47 48 49 50
000
ASUS44 KLUB 222110
RWRTX
WEST TEXAS WEATHER ROUNDUP
NATIONAL WEATHER SERVICE LUBBOCK TX
400 PM CDT FRI AUG 22 2014

NOTE: "FAIR" INDICATES FEW OR NO CLOUDS BELOW 12,000 FEET WITH NO
SIGNIFICANT WEATHER AND/OR OBSTRUCTIONS TO VISIBILITY.

TXZ004-006>008-010-012-014-016-OKZ002-222200-
TEXAS PANHANDLE/OKLAHOMA PANHANDLE

CITY           SKY/WX    TMP DP  RH WIND       PRES   REMARKS
AMARILLO       MOSUNNY   96  53  23 S22G28    29.99F
BORGER         LGT RAIN  91  65  41 SE8G25    29.93F
CANADIAN       SUNNY    100  59  26 S13G26    29.90F HX  99
DALHART        MOSUNNY   95  47  19 S20G26    29.99F
DUMAS          MOSUNNY   91  57  32 S35G45    30.00R
GUYMON         SUNNY    102  54  20 S17G28    29.89F HX 100
HEREFORD       MOSUNNY   92  57  31 S15       30.01F
PAMPA          MOSUNNY   94  55  26 S16       29.97F
PERRYTON       SUNNY     99  55  23 SW16G26   29.92F HX  97
$$

TXZ026-029-035-045-048-222200-
SOUTHERN PANHANDLE/SOUTH PLAINS/ROLLING PLAINS

CITY           SKY/WX    TMP DP  RH WIND       PRES   REMARKS
CHILDRESS      SUNNY    101  59  24 S18G24    29.93F HX 101
SEMINOLE       MOSUNNY   95  56  27 S10       30.03F
LUBBOCK        MOSUNNY   92  59  33 S13       30.02F
PLAINVIEW      MOSUNNY   91  59  33 S8        30.00F
SNYDER         SUNNY     96  49  20 S14G24    30.00F
$$

TXZ052-054-060>062-072-078-127-140-154-169-222200-
PERMIAN BASIN/CONCHO VALLEY/BIG COUNTRY/EDWARDS PLATEAU

CITY           SKY/WX    TMP DP  RH WIND       PRES   REMARKS
ABILENE        SUNNY     98  51  20 S20G28    29.99F HX  95
BIG SPRING     SUNNY     98  49  19 E7        30.02F
BRADY          SUNNY     97  54  23 S13       30.02F
BROWNWOOD      SUNNY     99  48  18 S20       29.99F HX  95
JUNCTION       SUNNY     94  56  27 SE15G22   30.02F
MIDLAND        SUNNY     94  59  31 VRB7G16   30.00F
ODESSA         SUNNY     93  57  29 SE8       30.01F
SAN ANGELO     SUNNY     98  46  17 S17G28    29.99F
SONORA         SUNNY     93  55  27 S17G24    30.06F
SWEETWATER     SUNNY     98  42  15 S22G28    30.04F
WINK           MOSUNNY   98  59  27 SE13G21   29.96F HX  98
$$

TXZ055-058-074-075-080-082-222200-
FAR WEST/SOUTHWEST MOUNTAINS/TRANS PECOS

CITY           SKY/WX    TMP DP  RH WIND       PRES   REMARKS
ALPINE         MOSUNNY   89  55  31 S9        30.15F
DRYDEN           N/A    101  57  23 VRB7      29.96F HX 100
EL PASO        LGT RAIN  75  62  64 SE5       30.11F
FORT STOCKTON  SUNNY     94  60  32 SE8       30.00F
GUADALUPE PASS PTSUNNY   82  57  42 SW21G30   30.18F
MARFA          MOSUNNY   86  55  35 S9        30.17F
PECOS          SUNNY     97  59  28 S5        29.95F HX  96
PRESIDIO       FAIR      93  60  33 NW3       29.99F
$$

TXZ014-016-019-021>030-083-222200
TEXAS TECH WEST TEXAS MESONET/TEXAS PANHANDLE/NORTHERN SOUTH PLAINS

CITY           SKY/WX    TMP DP  RH WIND       PRES   REMARKS
ABERNATHY 5ENE   N/A     96  56  26 S14       30.03F
AMARILLO 9NNE    N/A     93  59  31 W7        29.96F
AMARILLO 7SSE    N/A     93  57  29 S15       30.00F
AMHERST 1NE      N/A     92  56  29 S16       30.02F
BOOTLEG 11WNW    N/A     91  53  26 S16       30.05F
CANADIAN 6E      N/A    101  60  25 S22       29.89F HX 102
CAPROCK CYN SP   N/A     96  57  27 S10       29.96F
CHILDRESS 2NNE   N/A    101  56  22 S14       29.92F HX 100
CLARENDON 2WSW   N/A    100  54  21 S15G24    29.95F HX  98
CLAUDE 12SW      N/A     93  57  29 S8        29.99F
DIMMITT 2NE      N/A     92  54  27 S17       30.02F
FLOYDADA 2NNE    N/A     93  55  27 SW14      30.02F
FRIONA 2NE       N/A     92  52  25 S16       30.03F
GOODLETT 3W      N/A    102  52  18 S15       29.90F HX 100
HART 3N          N/A     90  56  32 S12       30.03F
HEREFORD 2NW     N/A     92  54  27 S14       30.01F
MCLEAN 1E        N/A     96  58  28 S16G26    29.95F HX  95
MEMPHIS 1NE      N/A    101  56  23 S13       29.92F HX  99
MULESHOE 2SSW    N/A     95  50  21 SW14      30.02F
OLTON 6S         N/A     93  54  26 S16       30.01F
PALO DURO SP     N/A     96  56  26 S17       29.99F HX  95
PAMPA 2E         N/A     96  57  27 S12       29.97F HX  95
PLAINVIEW 1S     N/A     92  57  30 S13       30.01F
SILVERTON 7ESE   N/A     95  58  28 S15G24    30.00F
TULIA 2ENE       N/A     94  56  28 S16       30.01F
TURKEY 2WSW      N/A     98  59  27 S12       29.95F HX  97
UMBARGER 3NNE    N/A     88  63  43 S15       30.01F
$$

TXZ033>036-039>041-045>048-222200
TEXAS TECH WEST TEXAS MESONET/SOUTH PLAINS

CITY           SKY/WX    TMP DP  RH WIND       PRES   REMARKS
AIKEN 3WSW       N/A     95  61  32 S13       30.02F HX  95
ANDREWS 2NE      N/A     94  54  25 SE12      30.02F
ANTON 6SSW       N/A     94  58  30 S10       30.02F
BROWNFIELD 2S    N/A     93  57  29 S10       30.02F
DENVR CTY 7WNW   N/A     91  53  27 S13       30.03F
GAIL 2ESE        N/A     97  53  22 S13       29.98F
LAMESA 2SE       N/A     95  57  28 SE9       30.02F
LEVELLAND 4S     N/A     90  56  31 S7        30.03F
LUBBOCK 3WNW     N/A     92  58  31 SE13      30.02F
MORTON 1ENE      N/A     94  54  25 S12       30.03F
ODONNELL 1N      N/A     92  56  30 SE8       30.02F
PLAINS 3N        N/A     93  57  29 S10G20    30.04F
RALLS 1SE        N/A     94  61  33 S13       30.03F
REESE CENTER     N/A     93  55  28 S10       30.02F
SEAGRAVES 1SW    N/A     93  57  29 S7        30.02F
SEMINOLE 2NNE    N/A     94  55  26 S13       30.02F
SLATON 2NE       N/A     93  57  30 S13       30.02F
SNYDER 3E        N/A     99  46  16 S15       29.99F HX  95
SUNDOWN 8SW      N/A     94  58  29 S9G21     30.04F
TAHOKA 3NNE      N/A     95  59  30 S12       30.02F
WOLFFORTH 6SSW   N/A     93  59  31 S13       30.02F
$$

TXZ031-032-036>038-042>044-222200-
TEXAS TECH WEST TEXAS MESONET/ROLLING PLAINS

CITY           SKY/WX    TMP DP  RH WIND       PRES   REMARKS
ASPERMONT 3NE    N/A    101  47  16 S13       29.95F HX  97
FLUVANNA 3WNW    N/A     94  52  23 S10       30.00F
GRAHAM 5SSW      N/A     92  55  28 S13       30.01F
GUTHRIE 10WSW    N/A    102  51  17 S14       29.94F HX  99
HASKELL 1NW      N/A    100  46  16 S14       29.95F HX  96
JAYTON 1SSE      N/A    100  47  16 S14       29.96F HX  96
KNOX CITY 3NW    N/A    103  46  14 S20       29.93F HX  99
LK A HENRY 1NW   N/A     98  54  22 SE10      29.97F HX  96
NORTHFIELD 1S    N/A    100  58  25 S14G23    29.93F HX  99
ODELL 4ENE       N/A    101  56  22 S12       29.92F HX 100
PADUCAH 10SW     N/A     99  56  23 S14       29.94F HX  97
POST 1NE         N/A     96  54  23 S10       29.99F
RRING SPRGS 3N   N/A     96  59  28 S16       29.99F HX  96
SEYMOUR 3NW      N/A    103  44  14 S15       29.93F HX  98
SPUR 1W          N/A     98  51  20 SW8       29.96F HX  95
WEINERT 2NNE     N/A    100  55  21 S14       29.94F HX  98
WHITE RVR 6NE    N/A     94  60  32 S9        29.99F
$$

TXZ052-054-060>062-072-078-127-140-154-169-222200-
TEXAS TECH WEST TEXAS MESONET/PERMIAN BASIN/
CONCHO VALLEY/BIG COUNTRY/EDWARDS PLATEAU

CITY           SKY/WX    TMP DP  RH WIND       PRES   REMARKS
COYANOSA 2N      N/A     98  60  27 SE8       29.96F HX  98
JUNCTION 1SSW    N/A     95  58  29 S8        30.02F
MERTZON 3NNE     N/A     97  53  23 SE13      30.01F
SAN ANGELO 7NW   N/A     96  46  18 S15       30.00F
STRLNG CT 4WSW   N/A     95  53  23 SE12      30.01F
ST LAWRNCE 5SW   N/A     94  52  24 S10       30.02F
SWEETWATR 11SW   N/A     96  50  20 S18       30.02F
WALL 1E          N/A     94  56  27 SE12      30.00F
$$

TXZ055-058-074-075-080-082-222200-
TEXAS TECH WEST TEXAS MESONET/FAR WEST/SOUTHWEST MOUNTAINS/TRANS PECOS

CITY           SKY/WX    TMP DP  RH WIND       PRES   REMARKS
PRSMN GAP BBNP   N/A     98  57  26 W7        29.98F HX  96
GUADLPE MTN NP   N/A     77  53  42 W20       30.19S
$$


USA.gov is the U.S. government's official web portal to all federal, state and local government web resources and services.